GFSFLT1_925_temp_015.txt.gz
Temp
18 19 20 20 19 19 19 19 19 19 18 18 18 18 18 18 18 18 17 16 16 16 16 15 15 14 14 14 13 12 12 12
17 18 19 19 19 19 20 20 19 18 17 17 17 17 17 18 17 17 16 16 15 15 15 14 14 13 14 14 12 11 11 11
16 16 17 18 19 18 17 17 16 16 16 15 15 15 16 16 16 16 16 16 15 14 14 13 12 11 11 12 11 11 10 10
18 17 16 16 16 16 16 15 15 15 15 15 15 15 15 14 14 14 15 14 14 14 14 13 12 10 10 10 10 10 12 11
18 17 15 14 15 15 15 14 14 14 14 14 13 12 12 12 11 11 12 13 13 13 13 13 11 9 9 9 9 9 9 11
16 14 13 12 13 14 14 14 14 13 13 13 12 11 10 10 10 10 11 11 12 12 12 12 11 9 7 7 7 7 7 9
14 13 13 13 14 14 14 14 14 13 13 13 12 11 11 10 10 10 10 9 9 10 10 9 8 6 4 4 4 4 4 4
14 14 13 13 13 14 14 13 12 12 12 11 11 11 10 9 9 9 8 8 7 7 6 5 4 3 3 3 3 3 2 2
14 13 13 13 12 12 12 11 11 12 12 12 11 10 9 8 8 7 6 6 6 6 4 4 4 5 5 4 3 2 1 1
14 14 13 13 12 11 12 12 12 12 11 10 10 9 9 7 7 7 7 6 5 4 5 5 5 5 4 4 4 3 1 0
15 15 13 12 12 12 12 12 11 10 10 9 8 7 6 6 6 6 5 4 4 5 4 5 5 4 4 3 3 2 1 1
15 14 13 12 12 11 11 10 9 9 8 8 7 7 6 6 5 4 4 4 4 4 4 4 3 2 3 4 3 3 2 2
14 13 12 11 11 11 10 9 8 8 8 7 6 5 5 5 4 3 4 3 3 3 3 2 1 3 2 3 2 2 2 2
14 13 12 11 11 10 9 8 7 7 6 5 5 5 4 3 2 2 3 2 2 2 2 1 0 0 1 2 1 1 1 1
13 12 11 10 10 9 7 7 7 6 5 4 4 4 4 3 2 2 2 2 2 1 1 1 0 -1 -0 -0 -0 -0 -1 -1
11 10 10 9 8 8 7 7 5 4 4 4 3 3 2 2 2 2 2 2 2 2 0 0 -0 -1 -1 -2 -1 -1 -2 -2
9 10 9 9 7 6 6 5 4 4 3 3 2 2 2 3 3 2 2 1 0 0 0 -1 -1 -2 -2 -2 -3 -3 -3 -3
8 9 8 7 6 5 5 4 4 3 3 3 2 2 2 2 1 1 0 -0 -1 -1 -2 -2 -2 -3 -3 -4 -4 -4 -4 -4
8 8 7 6 5 4 5 5 4 3 3 2 2 1 1 0 0 -0 -1 -1 -2 -2 -2 -3 -3 -3 -4 -5 -5 -5 -5 -5

GFSFLT1_925_temp_018.txt.gz
Temp
24 23 22 22 21 20 20 20 19 18 18 17 18 18 18 17 18 17 16 16 15 15 15 15 15 15 15 16 15 15 16 15
23 21 20 20 19 20 20 19 17 18 18 18 19 19 18 18 18 16 15 15 14 14 14 15 15 15 15 14 14 15 14 15
22 21 20 19 18 18 18 18 17 17 17 17 16 16 17 16 16 15 15 14 14 14 13 14 14 14 14 14 13 14 14 14
23 21 19 18 17 17 17 17 16 15 15 16 17 17 17 17 15 15 14 13 13 13 13 12 12 13 13 13 13 13 14 14
21 20 18 17 16 16 16 16 16 15 14 15 15 15 15 14 14 14 13 12 12 12 11 11 11 12 12 12 12 12 12 13
20 19 17 16 15 15 15 16 15 14 14 13 14 14 14 14 13 12 12 13 12 12 10 10 10 10 10 9 9 9 10 9
19 18 18 17 16 16 15 15 15 14 13 13 12 12 11 12 12 12 12 12 12 11 9 9 8 8 8 7 5 4 4 4
19 19 19 17 17 16 15 15 15 14 13 12 11 12 12 12 11 11 11 11 10 10 8 8 8 6 5 4 4 3 2 2
19 18 18 17 16 15 15 15 14 14 13 12 12 12 11 11 11 10 9 9 9 8 7 7 6 6 5 4 3 3 3 2
19 18 18 17 16 15 14 14 14 14 13 12 11 11 10 9 9 8 8 8 7 7 7 6 6 5 5 5 4 4 3 2
19 18 17 16 16 15 14 14 13 13 12 11 10 9 9 8 7 7 7 6 6 6 6 6 5 5 4 2 3 3 3 3
18 17 16 15 15 14 14 13 12 12 11 10 9 8 7 7 6 6 6 6 6 6 6 5 3 2 1 2 3 3 3 4
18 17 16 15 14 14 13 12 11 10 10 9 8 7 6 6 6 5 5 5 5 5 5 3 2 2 2 2 2 3 3 3
18 16 15 14 13 12 11 11 10 9 9 8 8 7 6 6 5 5 5 5 4 4 2 1 1 2 1 2 2 2 2 2
16 15 14 13 12 12 10 10 9 8 8 8 7 6 5 3 3 4 4 4 3 3 3 2 2 2 2 2 1 2 1 2
14 13 12 12 11 10 10 9 8 7 7 7 5 4 3 3 4 4 4 4 4 3 2 2 1 1 1 -1 -1 -0 0 1
12 11 11 11 10 9 9 8 7 7 6 6 5 5 5 5 4 4 3 3 3 2 2 1 1 1 -1 -3 -4 -2 -1 -0
11 11 11 10 9 9 8 8 7 6 6 5 5 4 4 4 3 3 3 2 2 2 1 1 0 0 -2 -3 -5 -3 -2 -1
12 11 11 10 9 9 8 8 7 6 6 5 4 4 3 3 3 2 2 2 1 1 1 -0 -1 -1 -3 -4 -5 -4 -3 -2

GFSFLT1_925_temp_024.txt.gz
Temp
28 26 25 24 23 24 24 23 22 21 21 21 21 20 20 20 20 19 18 17 17 16 16 16 16 16 16 16 16 16 15 15
24 24 23 23 23 22 22 20 20 20 21 20 20 20 19 20 19 18 17 17 16 15 15 15 15 15 15 15 14 14 14 15
23 22 21 21 21 21 21 20 19 19 19 19 19 19 19 19 19 18 17 17 16 15 15 14 13 13 13 13 13 14 14 14
23 21 20 20 20 20 20 19 18 17 18 18 18 18 18 18 18 17 17 15 14 14 14 14 13 13 12 12 12 12 12 12
23 21 20 19 19 19 19 19 18 17 16 16 16 16 16 15 15 15 15 14 14 13 13 13 12 12 11 11 11 9 8 7
22 21 20 18 18 18 18 19 18 17 16 16 15 15 14 14 14 14 13 13 12 12 12 11 11 10 10 9 8 7 6 6
22 22 21 19 19 18 18 18 18 18 17 16 15 14 14 14 13 13 12 11 11 10 10 10 10 9 8 7 7 6 5 5
22 22 21 20 19 19 18 18 17 17 16 16 15 14 13 13 12 11 10 9 9 9 9 9 8 8 7 6 6 5 5 4
22 21 21 20 19 19 18 17 17 16 16 14 14 13 12 11 10 9 9 9 8 9 8 7 6 6 5 5 4 4 4 4
22 21 21 20 19 18 17 17 16 16 14 13 13 11 11 10 9 9 8 8 8 8 7 7 6 5 4 3 4 4 4 3
21 21 20 19 18 17 16 16 15 15 14 13 12 11 11 10 9 9 8 7 7 7 6 5 5 4 3 3 3 3 3 3
21 20 18 18 17 16 16 15 14 13 12 12 11 11 10 10 9 7 6 6 6 6 5 4 3 4 3 3 2 3 3 3
19 18 18 17 16 16 15 14 13 12 11 11 11 10 8 7 7 6 6 5 6 5 5 4 3 3 3 3 3 3 3 3
19 18 17 16 15 15 15 13 13 12 11 11 10 9 8 6 6 6 5 6 6 6 5 5 5 4 4 4 4 3 2 2
18 16 15 15 15 14 14 13 12 11 11 10 9 9 7 6 6 6 5 5 5 5 5 4 4 4 4 3 3 1 0 -0
15 14 13 14 14 14 13 12 12 11 10 10 9 9 7 6 6 5 5 5 5 4 4 4 3 3 2 2 1 -0 -1 -1
13 12 13 14 14 13 13 12 12 11 10 10 9 8 6 6 5 5 5 5 4 4 3 3 3 3 1 0 -1 -2 -2 -2
13 13 14 13 13 13 13 12 12 11 10 10 10 7 6 6 5 5 5 4 4 3 3 3 2 1 0 -2 -3 -3 -3 -3
13 13 13 13 13 12 12 12 11 11 10 8 9 7 6 6 5 5 4 4 3 3 3 2 1 -0 -1 -2 -3 -4 -4 -4

GFSFLT1_925_temp_027.txt.gz
Temp
20 21 22 22 21 21 21 20 19 20 20 20 20 20 19 19 19 18 18 17 17 17 16 16 15 15 14 14 13 14 13 13
19 20 20 21 21 20 20 20 20 20 19 19 19 19 19 19 18 18 17 16 15 15 14 14 14 14 13 13 13 12 12 12
18 19 19 20 20 19 19 19 19 19 18 18 18 18 18 18 16 15 15 14 14 14 13 13 13 13 12 12 11 11 10 10
18 18 18 19 19 19 18 18 18 18 18 18 17 17 16 16 15 14 14 13 13 12 12 11 11 11 11 11 10 10 7 7
18 17 18 18 18 18 18 18 18 18 17 16 16 15 14 14 14 13 13 12 11 11 11 11 10 10 10 9 8 9 8 6
16 17 18 18 18 18 18 18 17 17 16 16 15 15 14 14 13 12 11 11 11 10 10 9 9 9 9 8 8 7 7 7
18 18 18 18 18 18 18 18 17 16 16 15 15 14 13 12 11 11 10 10 9 9 8 8 8 8 8 7 6 6 5 5
16 17 18 18 18 18 18 17 17 16 15 14 13 12 12 11 10 9 9 9 8 8 7 7 7 6 6 6 5 4 4 4
17 19 19 18 18 18 17 17 16 14 14 13 12 11 11 10 9 9 9 8 8 7 7 6 6 5 5 4 5 3 4 4
18 18 17 17 17 16 16 16 15 14 13 12 11 11 10 10 9 9 8 7 6 6 6 6 5 4 4 4 3 3 3 3
15 16 17 17 17 16 16 15 14 12 12 11 11 11 10 9 8 7 6 6 6 6 5 5 5 4 3 3 3 3 3 3
14 16 17 16 16 15 15 14 13 12 11 11 11 10 9 9 8 7 6 6 5 5 5 5 5 4 4 3 3 3 3 3
15 16 15 15 15 15 14 13 12 12 11 11 10 10 9 9 8 7 7 5 5 5 5 5 4 4 4 4 3 3 2 2
13 13 13 13 13 14 13 13 12 11 11 11 10 9 9 8 7 6 5 5 5 5 5 4 4 4 3 3 3 2 1 1
12 11 12 13 13 13 13 12 12 12 11 10 10 9 9 8 6 6 5 5 5 5 4 4 3 3 3 2 1 1 -0 -1
11 10 11 12 13 13 13 12 12 12 11 10 10 9 9 6 6 5 5 5 5 4 4 3 3 2 2 1 0 -1 -2 -2
11 11 12 12 13 12 12 12 12 11 11 10 9 8 7 7 6 5 5 5 4 4 3 3 2 2 1 0 -1 -2 -2 -3
10 11 12 12 12 12 11 10 10 10 9 8 6 6 5 4 3 2 4 4 4 3 3 3 2 1 -0 -1 -2 -3 -4 -4
11 12 12 13 12 10 10 9 9 9 8 7 5 5 4 3 2 3 4 3 3 3 2 1 0 -1 -2 -2 -3 -3 -4 -4

GFSFLT1_925_temp_030.txt.gz
Temp
17 18 18 19 19 19 18 19 18 18 17 18 18 18 18 18 17 16 16 15 15 14 14 14 13 13 13 13 13 12 12 11
16 18 18 18 18 18 17 17 17 18 18 18 18 16 16 15 15 15 14 14 13 13 12 12 12 12 12 11 11 11 11 10
16 17 17 17 17 17 17 17 18 17 17 16 16 16 15 15 14 13 13 13 12 12 12 11 11 10 10 10 10 10 9 8
15 15 17 18 17 18 18 18 18 17 17 17 17 17 16 15 13 13 12 12 12 11 10 10 10 9 9 9 9 9 8 7
15 16 17 18 18 18 18 17 17 17 16 16 16 15 14 13 13 13 12 12 12 11 11 10 9 9 9 8 7 7 7 7
14 16 18 18 18 18 17 17 17 16 16 15 15 14 13 12 11 11 11 10 9 9 9 8 8 7 7 7 6 6 5 5
15 17 17 18 17 17 17 16 16 16 15 15 14 13 12 12 10 10 9 9 8 8 8 7 7 7 6 5 5 4 4 4
14 15 16 16 17 17 17 16 15 14 14 13 13 12 11 11 10 9 9 8 7 7 7 6 6 6 5 5 5 4 4 3
14 15 15 16 16 16 16 15 14 13 13 12 11 11 10 10 9 8 7 7 6 6 6 6 5 5 4 4 4 3 3 3
13 15 15 16 16 15 15 14 13 12 12 11 11 10 10 10 9 8 7 7 7 6 5 5 5 4 4 4 3 3 3 3
13 14 15 14 14 14 14 14 12 11 11 11 11 11 10 9 9 8 8 7 7 6 5 5 5 4 4 4 4 3 3 3
12 12 13 14 14 14 14 12 12 12 11 11 11 10 10 9 9 9 8 7 7 6 5 5 5 4 4 3 3 3 2 2
11 12 12 13 13 13 12 12 12 11 11 11 11 10 9 9 9 8 8 7 6 5 5 4 4 4 3 3 3 2 1 1
10 11 11 12 12 12 12 12 12 12 12 11 10 10 9 9 8 8 6 6 5 4 4 4 4 3 3 2 2 1 1 -0
10 10 11 12 12 12 12 12 11 10 10 10 10 10 8 8 7 6 5 4 1 3 4 4 3 3 3 2 1 0 -1 -1
10 10 10 11 12 12 11 10 10 10 9 9 8 7 7 7 6 5 4 2 2 1 3 3 3 2 2 1 0 -1 -2 -2
9 10 11 11 11 10 10 9 9 9 8 7 6 6 6 5 5 4 3 1 0 2 3 3 2 1 0 -1 -1 -2 -3 -3
9 10 10 9 9 9 9 9 9 8 7 6 5 5 5 4 4 3 3 1 1 1 1 2 0 -1 -1 -2 -3 -3 -4 -4
9 9 9 9 9 9 9 8 8 7 6 5 4 4 4 3 3 3 2 1 0 -1 0 0 -1 -2 -2 -3 -4 -4 -5 -5

GFSFLT1_925_temp_036.txt.gz
Temp
13 13 14 15 15 16 15 15 14 14 12 14 15 15 15 15 15 15 15 15 14 14 13 12 12 12 11 11 10 10 9 8
13 13 15 15 15 16 16 16 13 13 14 15 15 15 15 15 15 15 14 13 13 12 12 11 11 11 10 9 8 8 8 7
13 14 16 16 15 15 15 16 15 16 16 16 17 16 15 15 14 13 12 12 11 11 11 11 10 10 9 8 7 7 7 6
12 13 14 15 16 17 17 17 18 18 18 18 17 16 14 13 12 12 11 11 11 11 10 10 9 9 8 7 7 6 6 6
12 13 14 17 17 17 18 18 18 17 17 16 16 15 14 13 11 11 10 11 10 10 10 9 8 8 7 7 6 6 5 5
12 13 15 15 16 16 17 17 16 16 16 15 15 15 13 11 11 11 11 10 10 10 9 8 7 6 6 5 5 5 4 4
14 14 15 14 15 15 15 15 15 15 15 14 14 13 12 11 11 11 11 11 10 9 8 8 7 6 5 5 4 4 3 3
12 13 13 14 15 14 14 14 14 14 13 13 12 12 11 11 11 11 11 10 9 9 8 7 7 6 5 4 4 4 3 3
13 14 14 13 13 14 14 14 13 13 12 12 12 12 12 11 11 10 10 9 9 8 8 7 6 5 5 4 4 4 3 3
11 12 12 12 13 14 13 13 13 12 12 12 11 11 11 10 10 9 9 9 8 7 6 6 5 4 4 4 3 3 3 3
9 10 11 12 12 13 13 13 12 11 11 10 11 11 10 9 9 9 8 8 7 6 5 5 4 3 2 3 3 3 3 2
9 10 11 12 12 13 13 12 11 12 11 10 10 9 9 9 8 7 7 6 6 5 4 4 3 3 3 2 2 3 2 2
9 10 11 11 12 12 12 11 11 10 9 10 9 9 8 7 7 7 6 6 6 5 4 3 3 3 2 1 2 2 2 0
8 9 10 10 10 11 10 10 9 10 9 9 9 8 7 7 6 6 5 5 5 4 2 2 2 1 0 1 1 0 -0 -1
9 9 9 10 10 9 9 9 9 9 9 8 8 7 6 6 5 4 4 4 3 2 2 1 0 -0 -0 1 1 -1 -1 -2
9 9 9 9 8 9 9 9 9 8 8 7 7 6 5 5 4 4 3 3 2 2 1 0 -0 0 0 -0 -1 -2 -3 -3
9 9 8 8 8 9 9 9 8 8 7 6 5 5 5 4 3 2 2 1 1 1 0 -0 -0 -1 -1 -2 -2 -3 -4 -5
8 7 7 8 8 8 8 8 7 7 6 5 5 4 3 2 2 1 0 -0 -0 -1 -1 -1 -2 -2 -2 -2 -3 -4 -5 -6
7 7 8 8 8 7 7 7 7 6 5 5 4 3 2 1 1 0 -0 -0 -1 -2 -2 -2 -2 -2 -3 -4 -5 -6 -6 -7

GFSFLT1_925_temp_042.txt.gz
Temp
20 19 20 20 19 17 15 15 15 14 14 14 14 13 14 14 14 14 13 12 12 12 12 12 12 12 12 11 11 11 11 11
19 18 17 17 15 15 15 14 15 15 14 13 13 13 13 13 13 12 12 12 12 12 12 12 11 11 10 10 10 11 11 10
19 18 18 17 16 16 15 16 15 15 16 16 16 16 15 14 13 12 12 11 11 11 11 11 11 11 10 10 9 10 10 10
20 19 18 17 17 17 18 17 17 17 17 16 15 14 14 14 13 12 11 11 11 11 11 10 10 10 10 9 9 9 9 9
20 19 19 19 18 18 19 18 17 16 15 16 16 17 17 15 14 13 12 11 11 11 10 10 9 9 9 9 9 8 8 9
21 20 19 19 17 17 17 17 17 15 15 16 16 16 15 13 13 12 12 11 10 10 10 9 9 9 9 8 8 7 7 7
21 20 19 18 16 16 16 16 15 15 15 14 14 14 14 14 13 13 13 12 11 10 9 9 9 8 8 8 7 6 6 6
21 20 19 18 16 16 15 16 16 14 14 14 14 13 13 13 13 13 12 12 11 10 9 8 8 8 7 7 6 6 5 5
21 20 19 18 17 17 16 16 15 14 14 13 12 13 13 12 12 11 10 10 9 8 7 7 7 7 7 6 5 5 5 5
21 20 18 18 17 16 16 15 14 13 12 12 11 11 11 11 10 9 9 8 8 8 7 7 7 7 6 6 5 5 5 4
21 19 17 17 16 15 14 14 13 11 11 10 11 10 10 9 9 8 8 8 8 7 7 6 6 6 6 5 5 5 4 3
20 18 16 16 15 14 14 12 12 11 10 10 10 10 9 9 9 8 8 7 7 6 6 5 5 5 5 4 3 4 2 2
18 17 15 15 15 14 13 12 11 10 9 10 10 10 9 9 8 7 7 6 6 5 5 5 5 4 2 2 1 1 2 3
17 16 15 15 14 13 12 11 11 10 10 10 10 9 8 8 7 6 6 5 5 4 4 4 4 3 2 1 1 2 2 2
17 16 15 14 13 12 11 10 10 10 10 10 9 9 8 7 6 5 5 4 4 3 3 3 2 1 2 2 2 2 2 1
17 16 15 14 13 11 11 11 10 10 10 9 9 7 6 6 5 5 4 3 3 3 2 2 1 2 2 1 1 1 1 0
17 16 14 13 12 11 11 10 10 9 9 8 8 6 6 5 5 4 3 3 3 2 1 1 1 0 -1 -1 -1 -0 -0 -1
16 15 13 12 11 11 11 10 8 8 8 7 6 5 5 5 4 3 3 3 2 0 0 -1 -1 -1 -2 -2 -2 -1 -2 -2
15 13 11 10 10 10 9 9 8 7 7 6 5 5 4 4 3 3 2 2 0 0 -0 -1 -0 -1 -3 -3 -3 -2 -2 -2

GFSFLT1_925_temp_045.txt.gz
Temp
25 24 24 24 22 20 18 17 14 14 15 15 15 15 14 13 12 13 13 13 13 14 14 13 13 13 13 12 12 12 12 13
23 23 23 23 22 19 17 15 14 15 16 15 15 15 15 15 15 14 14 14 13 13 14 13 13 13 12 12 11 11 12 12
23 22 22 21 19 17 16 16 16 17 18 17 17 17 17 16 15 14 14 13 13 13 12 13 12 12 12 12 11 11 11 11
23 22 21 19 18 17 17 18 18 19 19 18 18 17 16 16 15 15 14 13 13 13 12 12 12 12 11 11 11 10 10 10
24 23 20 18 19 19 20 20 19 19 18 18 18 18 18 17 17 16 14 13 13 12 12 11 11 11 11 11 11 10 9 10
24 23 22 21 21 20 20 20 19 18 18 18 18 18 17 16 16 15 14 13 13 12 12 11 11 10 10 10 9 9 9 8
24 23 22 21 20 20 20 19 19 18 17 17 17 17 16 16 15 15 14 14 13 13 12 11 10 10 10 9 9 8 8 7
24 23 22 20 19 19 19 19 18 17 17 16 16 15 15 15 14 14 14 13 13 12 11 10 10 9 9 8 8 8 7 6
23 23 22 21 19 18 18 19 18 17 16 16 15 15 15 14 14 13 12 12 11 11 10 9 9 8 8 8 8 8 7 5
24 23 22 21 19 19 18 18 17 16 15 14 14 13 13 13 12 12 11 11 10 10 9 8 8 8 7 7 7 7 6 6
24 23 21 21 20 19 18 18 17 15 14 14 13 12 12 12 11 11 10 10 9 9 8 8 7 7 7 7 7 7 5 5
24 23 21 20 19 18 17 17 16 14 14 12 11 12 12 11 11 10 10 9 8 8 7 7 7 7 7 6 5 4 4 4
24 23 21 19 18 17 16 15 15 14 12 11 11 11 11 11 11 10 9 8 7 7 7 6 6 6 6 4 3 3 4 3
23 22 20 19 18 17 16 15 14 11 10 11 12 12 11 10 10 9 8 7 7 6 6 6 5 5 4 3 3 3 2 2
22 21 19 18 18 16 15 14 11 10 12 13 12 11 10 10 9 8 7 6 6 6 5 5 4 3 3 3 2 2 2 2
21 20 19 18 17 15 14 12 12 12 12 12 11 10 9 8 8 7 6 6 5 5 5 4 3 3 2 1 2 1 1 2
21 20 19 18 16 14 13 12 12 12 11 11 10 9 8 8 7 6 6 5 5 5 4 3 2 2 0 0 -1 0 1 1
20 20 18 17 15 14 13 12 11 10 10 10 9 8 7 7 7 6 5 5 5 4 2 1 1 0 -1 -1 -1 -1 -0 0
20 19 17 15 14 13 12 11 10 10 9 9 8 7 7 6 6 5 5 5 4 2 2 1 0 -1 -1 -1 -2 -2 -0 -0

GFSFLT1_925_temp_048.txt.gz
Temp
26 26 25 23 21 19 19 17 16 15 15 15 15 15 15 16 15 15 14 14 14 14 14 13 13 13 13 12 12 11 11 11
25 25 25 24 21 19 18 15 16 14 14 15 15 15 15 15 14 14 14 14 13 14 14 13 13 13 12 12 11 11 11 10
24 24 23 23 21 18 16 16 14 15 17 17 16 15 15 15 15 14 14 14 13 13 13 13 12 12 12 11 11 11 10 10
24 23 23 22 19 17 17 17 16 17 19 17 17 17 16 16 15 14 14 13 13 13 12 12 11 11 11 11 11 10 9 9
25 23 21 19 18 18 17 17 18 19 19 18 18 17 17 17 16 15 14 13 13 13 12 12 11 11 11 10 10 10 9 9
25 21 20 18 18 18 18 19 20 19 19 19 18 18 18 17 16 15 14 14 13 13 12 12 11 11 10 10 9 9 9 8
24 22 20 19 19 20 20 20 20 19 18 18 18 18 17 16 16 15 14 14 14 14 13 11 11 10 9 9 9 8 8 8
23 23 22 21 21 20 20 20 19 18 18 17 17 16 16 16 15 15 14 14 13 12 11 10 10 9 9 8 8 8 8 8
23 23 22 21 20 20 20 20 19 18 17 17 16 15 15 15 14 14 13 12 12 11 10 10 9 8 8 8 7 7 7 7
23 23 22 21 20 19 19 19 18 17 17 16 15 14 14 13 13 12 12 11 11 10 9 9 8 8 8 7 7 7 7 6
23 23 22 21 20 19 19 19 17 17 16 15 14 13 13 12 12 11 11 10 10 9 8 8 8 7 7 7 7 6 5 4
23 23 22 22 20 19 18 18 17 16 15 14 13 12 12 11 11 11 10 9 9 8 8 7 7 7 6 6 5 4 4 4
23 23 22 21 20 19 18 18 16 15 14 12 11 11 11 11 11 11 10 9 8 7 7 6 6 6 6 5 4 3 3 3
24 23 21 20 20 19 18 17 16 14 12 11 11 11 12 11 11 10 9 8 7 7 6 6 5 5 4 4 3 3 2 2
24 23 22 20 19 18 17 16 14 12 11 11 12 12 11 11 10 9 8 7 6 6 6 5 5 4 4 3 3 2 2 2
25 23 21 20 19 18 17 14 12 11 12 12 12 11 10 9 9 8 7 6 6 6 5 5 4 3 2 2 1 1 1 1
23 23 21 20 19 17 15 13 12 12 12 11 10 9 9 9 8 7 7 6 6 5 5 4 2 2 1 1 1 0 -0 0
22 22 21 19 18 16 14 13 13 11 10 9 9 9 8 7 7 6 6 6 5 5 3 2 2 1 0 -0 -0 -0 -1 -0
22 21 20 18 16 15 14 13 11 10 9 9 9 8 7 7 7 6 6 5 5 4 2 2 1 0 -0 -1 -1 -1 -1 -1

GFSFLT1_925_temp_054.txt.gz
Temp
19 19 19 19 19 18 18 17 17 17 17 16 16 16 16 16 15 15 15 15 15 14 14 13 13 13 12 11 11 10 10 9
20 19 18 18 17 18 17 17 17 17 16 16 15 15 15 15 15 14 14 14 14 13 13 13 12 12 12 11 10 10 10 9
20 19 18 17 17 17 17 17 17 17 17 17 16 15 14 15 14 14 14 13 13 13 13 12 12 12 11 10 10 10 9 9
18 18 17 16 15 16 16 17 17 17 17 16 15 14 14 13 13 13 13 13 13 14 13 13 12 11 11 10 9 9 8 8
18 18 16 16 16 16 16 17 17 17 16 15 15 14 12 13 14 14 13 13 13 13 13 12 11 11 10 10 9 8 8 8
18 18 17 16 15 16 16 17 17 16 16 15 15 14 15 14 14 14 14 13 13 13 12 11 10 10 10 9 9 8 8 7
18 17 16 15 15 16 16 16 16 16 16 15 15 16 15 15 14 13 13 13 12 12 11 10 10 10 9 9 8 8 7 7
16 15 15 15 15 15 16 16 16 16 16 16 16 16 16 15 14 13 13 12 11 11 11 10 10 9 8 8 7 7 7 7
17 16 16 15 15 15 16 16 17 16 16 16 16 16 15 15 14 13 12 11 10 10 9 9 9 8 7 7 7 6 6 6
16 16 15 15 16 16 16 17 17 17 17 16 16 15 14 13 12 11 10 9 8 9 9 9 8 8 7 7 6 6 5 4
15 16 16 17 18 18 18 17 17 17 17 16 16 14 14 12 11 9 9 8 9 9 8 8 8 7 7 6 6 5 4 4
16 16 16 18 18 18 18 18 18 17 16 14 13 12 11 10 10 9 9 8 8 8 8 7 7 6 6 5 5 4 4 3
16 16 16 16 17 18 18 18 17 16 14 12 11 11 10 9 9 7 7 8 8 8 7 7 6 6 5 5 4 4 3 3
17 16 16 16 16 17 15 14 11 11 12 12 11 10 9 8 8 8 7 7 8 7 7 6 6 5 5 4 4 3 2 2
17 16 16 17 16 15 14 13 13 11 11 11 10 10 9 9 8 8 8 8 7 7 6 6 5 5 4 3 3 2 2 1
17 14 13 15 14 12 12 11 11 11 11 11 10 10 9 8 8 7 7 7 7 7 6 5 5 4 3 3 2 2 1 1
16 13 14 13 12 10 10 10 11 11 10 10 9 9 8 8 7 7 7 6 6 6 5 5 4 3 3 2 1 1 0 0
14 14 13 12 11 10 9 10 9 9 9 9 8 8 8 7 7 6 6 6 5 5 5 5 4 3 3 2 1 0 -0 -1
11 11 11 10 10 9 9 9 9 8 8 7 7 7 7 6 5 6 5 5 5 5 5 4 3 3 2 1 1 -0 -1 -1

GFSFLT1_925_temp_057.txt.gz
Temp
17 16 17 17 17 17 18 17 17 17 17 16 15 15 15 16 16 15 14 14 14 14 14 13 13 13 13 12 11 10 10 9
17 17 17 17 17 17 17 17 17 16 15 14 15 15 15 15 14 14 14 14 14 14 14 13 13 13 12 11 11 10 9 8
17 17 18 17 17 17 17 17 16 16 16 16 15 15 14 14 14 14 14 14 14 14 14 13 13 12 11 10 10 9 9 8
18 17 17 17 16 17 17 17 17 16 16 15 15 14 14 13 13 13 13 14 14 14 13 13 12 11 11 10 9 9 8 8
19 18 16 16 16 17 17 16 16 16 16 15 16 15 14 14 14 14 13 13 13 13 13 12 11 11 10 9 9 8 8 8
18 18 17 16 15 15 15 14 14 15 15 15 15 15 15 14 14 13 13 13 13 12 12 11 11 10 9 9 8 8 7 7
18 18 17 16 15 14 14 15 16 16 15 15 15 15 14 14 13 13 13 12 11 11 11 10 9 9 9 8 8 7 7 6
16 15 16 14 14 14 13 14 14 15 15 15 15 15 15 14 14 13 12 11 11 10 9 8 8 8 8 8 8 7 6 6
15 15 15 15 14 14 14 14 14 15 15 15 15 15 15 14 14 13 11 10 9 8 7 7 8 8 8 7 7 6 6 5
15 15 15 14 14 14 14 14 14 14 15 15 15 15 14 14 12 12 10 9 8 7 7 7 7 7 7 6 6 6 5 4
14 15 15 14 15 15 14 14 15 16 16 15 15 14 14 13 12 10 9 8 7 7 6 5 6 7 7 6 5 5 4 4
14 15 15 15 15 16 16 15 16 16 16 15 15 13 12 11 10 9 8 8 7 6 4 5 6 7 6 5 5 4 4 4
15 15 15 15 16 16 16 16 15 14 14 12 11 10 10 9 8 8 7 7 7 6 6 6 7 6 5 5 5 4 3 3
14 14 14 15 15 15 15 14 13 13 12 11 10 9 9 9 9 7 7 7 6 6 7 7 7 6 5 5 4 4 3 2
14 14 14 15 15 13 12 11 11 11 11 10 9 9 9 9 8 7 7 7 7 7 7 6 5 5 5 4 3 3 2 2
14 13 12 13 13 12 11 11 10 10 9 9 9 8 8 8 7 7 7 7 6 7 6 5 5 5 4 4 3 2 2 1
14 13 12 12 11 10 9 9 9 9 8 8 8 8 7 7 7 7 6 6 6 6 5 5 5 5 4 3 3 2 1 1
12 11 11 10 9 9 9 8 8 8 8 8 8 7 7 6 7 6 6 4 4 5 5 5 5 4 4 3 2 1 1 0
9 8 8 8 8 8 8 8 8 7 7 7 7 7 6 6 5 5 4 4 5 5 5 5 4 4 3 2 2 1 0 -0

GFSFLT1_925_temp_060.txt.gz
Temp
16 16 16 16 17 17 17 17 17 16 16 16 15 15 14 15 15 15 15 15 14 14 14 14 13 13 12 12 11 10 10 9
16 16 16 16 17 16 17 16 16 16 15 15 14 14 14 14 15 15 14 14 14 14 14 13 13 13 12 11 10 10 9 8
16 16 16 16 17 17 17 16 17 16 16 16 15 15 14 15 14 14 14 14 14 14 14 13 12 12 12 11 10 9 8 8
15 15 16 16 17 17 17 17 17 16 16 15 15 14 14 13 13 13 13 13 13 13 13 13 12 11 11 10 9 9 8 8
16 16 15 15 16 16 16 16 16 15 15 15 15 14 13 14 14 14 13 13 12 12 12 12 11 10 10 9 9 9 8 8
16 16 16 15 16 16 15 15 15 15 15 15 15 14 14 15 14 13 12 12 12 12 11 11 10 10 9 8 8 8 8 7
17 18 17 16 15 16 15 15 15 14 14 14 14 14 13 14 13 12 12 12 11 11 10 9 9 9 8 7 8 7 7 6
16 14 15 15 15 15 15 14 13 14 14 13 13 14 14 13 13 13 12 12 11 10 9 9 9 8 7 7 7 7 7 6
16 16 15 14 14 14 14 13 14 13 13 13 13 14 14 14 14 13 12 11 10 9 9 8 8 7 6 6 5 6 6 5
16 16 15 14 14 14 14 13 13 13 14 13 13 14 13 14 13 13 12 11 9 8 8 7 7 6 5 5 6 6 5 5
14 14 14 14 14 15 15 14 14 14 13 13 14 14 14 13 13 12 11 9 8 7 8 6 6 7 6 6 6 5 5 4
13 13 14 14 14 14 14 14 13 14 14 14 14 14 13 12 12 10 9 8 8 8 6 7 7 7 6 6 5 5 4 3
13 13 14 14 14 14 14 13 14 14 14 14 14 13 11 11 10 9 8 8 7 7 7 7 7 6 5 5 5 4 3 3
13 12 13 13 14 13 13 14 13 13 13 12 10 9 9 9 8 8 8 7 7 6 6 6 6 5 5 5 5 4 3 3
13 12 12 13 13 13 12 12 12 11 10 9 8 7 7 8 8 8 7 7 6 6 5 6 5 5 5 5 4 4 3 3
14 13 12 12 11 10 10 10 10 9 8 8 7 8 8 7 7 6 5 5 5 6 5 5 5 5 5 5 4 3 3 2
14 13 11 10 10 9 9 9 9 9 8 7 8 8 6 7 5 5 5 5 5 4 3 4 5 5 5 4 3 3 2 2
9 9 9 9 9 8 8 8 8 8 7 7 7 6 6 5 5 5 6 5 4 4 4 4 5 5 4 4 3 2 2 1
7 6 6 6 7 7 7 7 7 6 6 6 6 6 5 5 5 5 4 3 4 4 4 4 4 4 4 3 3 2 1 1

GFSFLT1_925_temp_063.txt.gz
Temp
17 16 15 15 15 15 16 16 16 16 15 15 15 15 15 15 15 14 15 14 14 14 14 14 13 13 13 12 12 11 10 10
17 16 16 16 15 15 16 16 16 15 15 14 14 14 14 14 14 15 14 14 14 14 14 13 13 13 12 12 11 10 9 9
17 16 16 15 16 16 16 16 16 16 16 16 14 14 14 14 14 14 13 14 14 14 14 13 13 12 11 11 11 9 8 8
18 16 16 16 15 15 16 16 17 16 15 14 14 14 13 13 12 13 13 14 13 13 13 13 12 12 11 11 10 9 9 7
19 18 17 16 15 15 15 16 15 15 15 14 14 14 13 12 12 13 13 13 13 13 13 12 12 12 11 10 9 9 8 8
19 19 18 16 15 15 16 16 15 15 15 14 14 13 13 13 13 13 12 12 12 12 12 12 11 11 10 9 9 8 7 6
20 19 18 17 15 14 15 14 14 13 14 14 14 13 12 13 13 12 11 12 12 12 12 11 11 10 9 8 8 7 6 6
20 19 18 17 15 15 15 14 14 14 14 14 14 13 13 14 13 12 11 11 11 11 11 10 9 9 8 7 7 7 6 6
20 20 19 17 16 15 15 14 14 13 14 15 14 14 13 14 14 13 11 12 11 11 10 9 9 7 8 7 7 6 6 6
19 19 18 17 16 15 16 14 14 13 13 13 12 13 12 13 13 12 11 11 10 10 9 7 7 7 7 7 6 6 6 5
18 18 17 17 16 16 14 14 15 14 13 12 12 12 12 13 13 12 11 10 10 8 8 8 8 6 6 6 6 6 5 5
17 17 17 16 15 15 15 14 15 14 13 12 12 12 12 12 11 10 9 9 9 8 7 7 7 6 6 6 5 5 5 4
18 17 16 15 15 15 15 14 14 13 12 12 12 11 11 10 8 8 7 8 7 7 7 6 6 6 5 5 5 5 4 3
17 16 16 16 15 15 14 13 13 12 12 11 10 9 8 7 6 6 5 6 6 6 5 5 5 5 5 6 5 5 4 3
18 17 16 15 14 13 13 11 11 11 10 8 7 6 6 6 6 7 7 6 5 5 4 5 5 5 5 5 5 4 4 3
17 16 15 14 13 11 10 9 9 8 8 7 6 6 6 7 6 5 5 5 5 5 5 5 4 4 4 4 4 4 3 2
15 15 14 12 11 10 9 9 8 8 8 6 7 7 7 6 5 5 5 4 4 4 5 4 3 3 4 4 4 3 3 2
11 11 11 10 9 8 8 7 7 7 7 6 5 6 5 4 4 4 4 4 4 4 3 3 3 4 4 4 4 3 2 2
9 8 7 7 7 7 7 7 6 6 5 5 5 4 4 4 4 4 4 4 4 3 3 4 4 4 4 4 3 3 2 1

GFSFLT1_925_temp_069.txt.gz
Temp
22 21 20 18 17 17 18 17 16 16 16 17 17 17 18 18 18 17 16 15 14 14 16 16 15 15 15 15 16 15 16 16
21 21 20 20 18 18 19 18 17 17 18 18 19 19 19 19 18 16 15 15 14 15 16 15 15 16 16 15 14 14 15 14
22 21 21 20 19 20 20 20 19 19 19 19 20 19 19 19 17 15 15 15 15 15 16 15 15 16 15 14 14 15 15 14
24 22 22 21 21 20 21 21 21 20 20 20 19 19 19 19 18 16 15 15 15 15 16 15 15 15 15 14 14 14 15 13
25 24 23 22 22 22 21 21 21 21 20 20 19 20 20 20 19 16 15 15 14 14 15 15 15 15 14 14 14 14 14 14
27 25 24 23 22 22 21 21 22 21 20 20 20 20 20 20 19 16 15 14 14 14 14 14 14 14 14 14 14 13 12 12
28 27 25 24 23 22 21 21 21 21 20 20 20 19 20 21 19 17 16 15 13 12 12 13 13 13 14 13 13 12 11 10
28 28 27 26 24 22 22 21 22 21 21 20 19 19 20 20 18 17 16 14 12 12 12 13 13 13 13 13 11 10 9 8
29 29 28 27 26 24 22 22 22 22 20 20 19 19 19 18 17 16 15 14 13 12 12 12 12 12 12 11 9 8 7 7
30 29 28 27 26 25 23 22 22 22 21 20 19 19 18 17 16 15 14 14 13 12 12 11 11 11 11 8 8 7 7 6
29 29 29 28 27 26 24 22 23 22 21 19 18 18 16 15 14 14 13 12 11 11 11 10 9 10 8 7 7 6 5 5
28 28 28 28 27 26 24 23 22 23 22 20 19 18 16 15 14 13 12 11 10 10 9 8 8 8 6 5 4 4 5 5
28 27 26 26 25 25 24 23 22 22 22 21 18 17 14 14 13 12 11 10 10 9 8 7 7 6 5 4 5 5 5 4
28 27 26 25 24 24 23 22 22 22 21 18 14 13 12 11 10 10 9 9 9 8 8 6 5 5 5 5 5 5 5 6
29 28 27 25 24 23 22 20 18 16 13 11 11 10 10 9 8 8 7 7 6 6 5 5 5 5 5 5 5 5 6 7
28 28 26 25 23 20 15 13 11 11 10 9 8 7 7 6 6 6 6 6 5 5 5 5 5 5 5 5 6 6 6 7
26 26 25 23 20 18 13 11 10 9 8 8 7 6 5 5 5 5 5 5 5 5 5 5 5 4 5 5 4 5 6 6
23 23 22 20 18 15 13 10 9 8 7 7 7 7 6 5 5 5 5 5 5 5 5 4 5 5 6 5 4 4 4 5
20 20 18 17 16 14 12 11 10 9 9 8 7 6 5 5 5 5 5 5 5 6 6 7 7 7 6 4 4 3 4 4

GFSFLT1_925_temp_072.txt.gz
Temp
18 16 14 12 13 12 12 12 12 13 14 15 16 17 17 18 18 17 17 16 15 16 15 16 15 15 15 15 16 16 16 16
20 19 16 14 13 13 13 13 14 14 15 15 17 17 18 18 18 17 17 16 16 15 15 16 16 15 15 15 15 16 15 15
22 20 18 17 16 15 14 15 16 15 16 16 17 18 17 18 18 17 16 15 16 15 15 16 15 15 15 15 15 15 15 14
21 21 19 17 17 17 18 17 17 17 17 19 19 19 19 19 18 17 17 16 16 15 15 16 15 15 16 15 14 14 14 14
22 21 20 19 18 19 19 20 19 19 19 20 20 19 19 19 18 17 16 16 16 16 15 16 15 15 15 15 14 14 15 14
23 23 21 20 20 20 20 21 21 21 21 20 20 20 19 20 20 17 16 16 15 15 15 15 15 15 15 14 14 14 14 13
25 24 23 22 21 21 21 21 21 22 20 21 20 19 20 20 19 18 16 16 15 14 14 14 14 14 14 14 13 14 13 12
25 25 24 24 22 22 22 21 21 22 20 20 20 20 20 20 20 18 16 15 14 14 14 14 13 13 13 13 12 12 12 11
27 26 25 25 24 22 22 21 21 22 22 20 20 20 19 19 19 18 16 15 14 14 13 12 12 13 12 11 10 10 10 9
28 28 27 26 25 23 22 22 21 22 22 21 20 19 19 19 19 18 16 16 14 14 13 12 12 11 11 10 9 9 8 8
28 29 28 27 26 24 23 22 22 22 22 21 20 20 19 19 18 17 16 15 14 13 12 11 11 11 10 8 7 6 7 6
28 28 29 28 27 26 23 23 22 23 22 21 20 19 19 18 16 14 14 14 13 12 11 10 10 9 7 6 7 7 6 5
28 28 28 28 28 27 25 23 23 23 23 22 20 19 18 16 15 14 13 12 11 11 10 10 9 8 8 8 7 6 5 5
28 27 26 26 26 26 26 24 23 23 22 21 18 15 15 14 13 13 12 11 10 9 8 8 7 7 6 6 6 6 5 5
28 27 26 26 25 25 24 21 19 17 15 13 12 12 12 12 11 10 9 9 8 8 7 7 7 6 6 6 5 5 5 5
28 28 26 25 23 17 15 14 13 12 10 9 9 9 10 9 8 8 7 7 7 7 6 6 6 6 5 5 5 5 6 6
27 28 25 23 17 14 12 11 10 9 8 7 7 7 7 6 6 6 6 6 6 6 5 5 5 5 5 5 5 5 5 5
24 25 22 19 15 13 11 9 9 8 8 7 6 6 6 5 5 5 5 5 5 5 5 5 5 5 5 5 4 4 4 4
23 22 20 16 13 12 10 9 8 8 7 7 6 6 5 5 5 5 5 5 6 6 6 6 6 5 5 4 4 3 3 3

GFSFLT1_925_temp_078.txt.gz
Temp
13 12 12 11 11 11 11 11 11 11 12 14 14 15 16 16 17 17 16 16 16 17 16 16 16 16 16 16 16 15 15 15
13 12 11 11 11 11 11 11 11 12 12 13 14 15 17 17 17 16 17 17 17 17 16 16 16 16 16 16 16 15 15 15
13 12 11 11 11 11 11 11 12 12 13 13 14 15 16 16 17 18 18 17 17 16 16 16 16 16 16 16 15 15 15 15
13 12 11 11 11 11 11 11 12 12 13 13 14 15 16 16 17 17 18 17 17 16 16 16 16 16 16 15 15 15 15 14
14 13 11 11 11 11 11 11 12 12 13 12 13 14 14 15 15 16 16 16 17 17 16 16 16 16 15 15 15 15 15 14
14 13 13 12 12 12 12 12 12 12 12 13 13 13 14 15 15 16 16 17 17 17 17 16 16 15 15 15 15 15 14 14
15 15 14 13 13 13 13 12 13 13 13 13 14 14 14 15 16 16 16 17 17 16 16 16 16 16 15 14 15 15 14 13
16 15 15 15 14 13 13 13 13 14 14 14 14 15 15 15 16 16 16 15 15 16 16 16 16 15 15 14 14 14 13 11
17 16 16 16 15 14 14 14 14 14 14 14 14 14 15 16 16 17 16 15 16 16 17 16 16 15 15 14 13 13 12 10
18 18 17 16 16 15 15 15 15 15 16 15 15 15 15 15 16 17 17 17 16 17 17 15 15 14 14 13 13 12 11 10
19 19 18 17 16 16 16 16 16 16 17 17 16 16 16 16 16 17 17 17 16 15 15 14 13 14 14 12 12 11 10 10
20 20 20 19 18 17 16 16 16 17 17 17 17 17 17 16 16 15 16 14 13 13 13 13 13 13 12 11 11 11 10 9
20 21 21 20 19 19 18 17 17 18 18 18 18 17 18 16 15 15 15 14 14 13 13 13 12 12 11 11 10 9 8 7
19 18 18 21 20 20 19 18 17 18 19 18 18 18 17 17 17 14 14 16 13 12 12 11 11 10 10 10 9 9 7 7
20 18 18 18 19 20 19 19 18 18 19 18 17 17 16 15 14 13 13 13 12 11 11 11 10 10 9 8 7 7 6 6
20 19 16 15 14 16 17 17 17 17 17 17 14 13 12 12 12 12 12 12 11 11 10 9 8 8 7 7 7 6 6 5
20 18 16 14 12 11 11 11 11 13 12 12 11 11 10 10 11 10 10 10 9 8 8 8 7 6 6 6 6 5 5 5
19 18 16 13 11 10 10 10 10 10 10 9 9 9 9 9 9 9 8 8 7 7 6 6 6 6 5 5 5 5 4 4
16 14 11 10 9 9 9 9 9 9 9 8 8 9 9 8 7 7 7 7 6 6 6 5 5 5 5 4 4 4 3 3

GFSFLT1_925_temp_081.txt.gz
Temp
13 12 12 11 11 11 11 11 11 11 12 13 14 15 16 16 16 17 17 17 16 16 16 16 16 16 16 15 15 15 15 15
13 12 11 11 11 11 11 11 12 12 13 13 14 15 16 16 16 16 16 15 16 17 16 16 16 16 16 16 15 15 15 15
13 12 12 11 11 11 11 11 11 12 12 13 13 14 15 15 15 16 16 17 17 16 16 16 16 16 16 16 15 15 15 15
14 12 12 11 11 11 11 10 11 11 12 12 14 15 15 15 16 16 16 17 16 16 16 16 16 16 16 16 15 15 15 14
13 12 11 11 11 11 11 11 11 11 12 13 14 14 15 16 17 17 16 16 16 16 16 16 16 16 16 16 15 15 15 14
13 12 11 11 11 10 11 11 12 12 12 13 13 13 14 15 16 17 17 17 17 17 17 16 15 16 16 15 15 14 14 14
14 13 12 11 11 11 11 11 12 12 12 12 13 13 14 14 15 15 17 17 18 17 17 16 16 16 16 15 15 14 14 14
14 13 12 12 11 11 11 11 11 11 12 12 13 13 13 13 14 15 16 16 16 16 16 16 16 16 16 15 14 14 13 13
15 14 14 13 12 12 12 12 12 12 12 12 13 13 13 13 13 14 14 14 15 16 17 16 16 15 15 15 14 14 14 13
16 16 15 14 14 13 12 13 12 13 12 13 13 13 13 13 13 14 14 15 15 15 16 16 15 15 14 14 13 13 13 13
17 16 16 15 15 14 13 13 13 13 13 13 13 13 13 13 14 14 14 14 14 14 15 14 14 13 13 13 12 12 12 12
18 17 17 16 15 15 14 14 14 14 14 14 14 14 14 14 14 14 15 15 14 14 14 14 13 13 13 13 12 12 11 11
18 18 18 17 16 15 14 14 14 14 15 16 15 15 15 15 14 14 15 14 14 14 14 14 12 12 12 12 11 11 11 9
18 18 18 18 17 16 15 15 15 15 15 15 15 15 15 15 15 15 14 13 14 14 14 14 13 11 11 11 11 10 9 8
17 18 18 19 18 18 17 16 15 15 15 16 15 15 16 16 15 15 13 13 13 12 12 12 11 10 11 10 10 9 8 7
18 17 16 15 17 18 18 17 17 16 15 15 15 15 15 14 14 13 13 13 12 11 12 11 10 10 10 9 8 7 6 5
18 18 17 15 15 15 16 15 15 14 13 12 13 12 12 12 12 12 11 11 11 10 9 9 9 9 9 7 7 6 5 5
18 18 17 15 12 12 11 11 11 11 11 10 10 10 10 10 11 10 10 10 9 9 8 8 7 7 6 6 6 5 5 4
17 14 11 10 10 10 9 10 10 10 10 9 9 10 9 9 9 9 8 8 7 7 6 6 6 5 5 5 4 4 3 3

GFSFLT1_925_temp_084.txt.gz
Temp
13 12 12 12 12 12 12 12 12 12 12 12 13 13 15 15 16 16 17 17 17 16 16 16 15 15 15 15 15 15 15 15
13 12 12 11 11 11 12 11 11 11 12 13 13 13 15 16 16 17 17 16 16 16 16 16 15 16 15 15 15 15 15 15
13 12 11 11 11 11 11 11 11 11 12 12 13 14 15 15 15 15 16 16 16 16 16 15 16 15 15 15 15 14 14 14
13 13 11 11 11 11 11 11 11 12 12 13 13 14 14 14 14 16 15 15 16 16 15 16 16 16 15 15 15 15 15 14
12 13 12 11 11 11 11 11 11 12 13 13 13 14 14 14 14 15 14 15 15 16 16 16 16 15 16 16 16 15 15 14
12 12 12 12 12 11 11 11 11 12 13 12 13 14 15 15 15 15 15 15 16 16 16 16 16 16 15 15 15 15 15 14
12 12 12 12 11 11 11 11 11 11 11 12 13 14 14 15 15 15 16 16 16 17 17 16 15 16 15 15 15 15 14 14
12 12 12 11 10 10 10 10 10 11 11 12 13 13 14 15 15 15 15 16 16 16 16 16 15 16 16 15 15 14 14 14
14 13 12 11 10 10 10 10 10 11 11 11 12 12 13 13 13 14 14 15 16 16 16 16 16 16 16 15 14 14 14 13
14 14 13 12 11 10 10 10 11 11 11 11 11 12 12 12 13 13 14 14 15 15 16 16 16 15 14 14 13 13 12 12
14 14 14 13 13 12 12 12 12 12 12 12 12 12 12 12 13 13 13 14 15 15 14 14 14 14 14 14 13 13 13 12
15 15 15 14 13 13 12 12 12 12 12 12 12 13 13 13 13 13 14 14 14 14 14 14 14 14 13 12 12 12 12 13
15 15 15 14 14 13 13 12 12 13 13 14 14 14 13 13 13 14 14 14 13 13 13 13 14 14 12 12 12 12 12 12
15 15 15 15 14 14 14 13 13 13 13 13 13 13 13 13 13 13 13 14 14 13 12 12 13 13 12 12 11 11 11 9
15 15 15 16 15 15 14 14 13 13 13 13 14 14 14 14 14 14 14 14 14 13 12 12 12 12 12 11 10 11 10 9
16 16 15 15 16 16 15 15 14 14 13 13 13 14 14 14 14 14 14 13 12 12 12 12 12 11 11 10 10 9 8 7
18 17 16 14 15 15 16 15 15 14 14 13 13 14 14 13 13 12 12 12 12 12 12 11 11 11 10 9 9 7 6 6
18 18 17 16 14 15 13 12 12 13 13 12 11 11 11 11 11 12 12 12 11 11 10 10 9 8 7 6 7 6 6 5
16 15 11 11 12 12 10 10 10 10 10 10 10 10 11 11 10 10 10 9 9 8 7 7 6 6 5 5 5 5 4 2

GFSFLT1_925_temp_090.txt.gz
Temp
19 17 15 14 12 12 12 12 13 13 13 13 12 12 12 13 13 14 15 18 16 16 14 15 15 15 15 15 15 16 16 16
19 17 14 14 12 12 12 12 12 13 13 12 12 12 12 12 13 13 15 16 16 16 16 15 15 16 15 14 15 14 14 14
19 17 15 14 12 12 12 13 12 12 13 12 12 12 12 13 13 13 14 16 16 16 16 15 15 15 15 13 13 14 15 14
20 18 16 14 13 12 12 12 12 13 13 12 12 12 12 12 12 13 15 16 15 15 15 15 15 15 14 14 14 16 16 15
22 19 17 15 14 13 13 12 12 12 12 13 12 13 13 13 14 13 14 14 14 15 15 15 14 15 15 15 15 15 16 17
22 20 18 15 15 14 13 12 12 12 13 13 12 13 15 14 13 14 14 15 15 14 15 14 15 15 15 15 15 15 16 16
23 21 19 17 14 14 14 13 12 11 12 12 13 13 14 13 13 14 14 15 15 15 16 15 15 15 15 15 15 14 14 15
23 22 20 18 15 14 14 14 13 12 12 12 13 13 14 15 14 14 14 15 15 15 15 15 15 15 15 15 14 14 14 15
24 23 21 19 16 14 13 14 14 13 13 12 14 15 16 16 15 16 15 15 15 15 14 15 14 15 14 14 15 15 15 15
25 24 21 20 18 16 14 14 15 14 14 14 14 15 16 16 16 16 16 16 16 15 15 15 15 15 15 15 15 15 15 14
26 25 22 21 19 17 15 15 15 15 15 15 15 15 15 16 15 15 16 16 15 16 15 15 15 15 15 15 15 15 14 13
25 25 23 21 20 18 16 15 15 15 16 15 15 15 15 15 15 15 15 15 15 15 15 15 15 15 15 15 15 14 12 12
25 25 24 22 20 19 17 15 15 15 16 16 15 15 15 15 15 15 15 15 15 15 15 15 16 15 15 15 13 14 12 12
25 24 24 23 21 20 19 17 16 16 16 16 15 15 15 15 15 15 15 14 15 15 15 15 15 15 15 13 12 13 13 12
26 24 24 23 22 21 20 19 18 17 17 16 16 15 15 15 15 14 14 14 14 14 14 15 15 15 15 14 13 12 12 12
26 26 25 24 22 21 20 20 19 18 17 17 16 16 15 15 15 15 14 14 14 15 15 15 15 15 14 13 12 12 12 11
27 27 26 25 23 22 21 20 19 17 17 17 17 16 16 16 15 15 15 15 15 15 15 15 14 13 12 12 12 11 10 9
27 27 25 25 23 22 21 19 18 17 17 17 16 16 16 16 15 15 15 14 14 13 12 12 11 10 10 9 9 8 7 6
26 27 26 24 22 21 20 19 17 16 17 16 16 15 15 13 12 11 11 10 10 8 8 7 7 5 6 6 6 5 4 2